Location: Waco, TX
(31.5480°N, 97.1670°W)
Time: 00:49:19
(UTC-05:00)

ISS - Pass Details

Date: 24 May 2018
Orbit: 402 x 407 km, 51.6° (Epoch: 23 May)

Event Time Altitude Azimuth Distance (km) Brightness Sun altitude
Rises 20:19:59 0° 232° (SW) 2,308 0.4 0.0°
Reaches altitude 10° 20:22:04 10° 236° (WSW) 1,451 -0.5 -0.4°
Maximum altitude 20:25:17 57° 317° (NW) 479 -3.0 -1.0°
Drops below altitude 10° 20:28:30 10° 37° (NE) 1,455 -1.1 -1.7°
Sets 20:30:36 0° 41° (NE) 2,316 -0.1 -2.1°
